JST840 YSSY-YBPN

Flight info

Callsign JST840
Flight time N/A
Altitude 38000
Route RIC H530 KABIX/N0461F390 Q141 DUPUG/N0464F380 DCT EML/N0399F200 W806 PN
Aircraft A20N/M-SDE2E3FGHIRWXY/LB1

Departure

Time 2026-05-05 09:09
Airport Sydney Kingsford Smith International Airport (YSSY)

Arrival

Time N/A
Airport Proserpine Whitsunday Coast Airport (YBPN)
Time Latitude Longitude Altitude Speed Heading
2026-05-05 08:26 -33.93600 151.18003 34 ft 0 kts 280°
2026-05-05 08:57 -33.93602 151.18016 34 ft 3 kts 280°
2026-05-05 08:57 -33.93603 151.18037 34 ft 3 kts 234°
2026-05-05 08:57 -33.93579 151.18062 34 ft 0 kts 187°
2026-05-05 09:04 -33.93581 151.18061 34 ft 2 kts 188°
2026-05-05 09:04 -33.93613 151.18057 32 ft 7 kts 185°
2026-05-05 09:04 -33.93677 151.18059 33 ft 5 kts 171°
2026-05-05 09:04 -33.93685 151.18061 34 ft 1 kts 170°
2026-05-05 09:05 -33.93696 151.18063 31 ft 2 kts 168°
2026-05-05 09:05 -33.93729 151.18073 34 ft 7 kts 168°
2026-05-05 09:05 -33.93776 151.18043 34 ft 10 kts 247°
2026-05-05 09:05 -33.93801 151.17941 31 ft 16 kts 258°
2026-05-05 09:06 -33.93760 151.17798 29 ft 21 kts 300°
2026-05-05 09:06 -33.93722 151.17715 29 ft 11 kts 299°
2026-05-05 09:06 -33.93688 151.17668 30 ft 8 kts 323°
2026-05-05 09:06 -33.93651 151.17610 28 ft 14 kts 289°
2026-05-05 09:07 -33.93652 151.17463 18 ft 16 kts 257°
2026-05-05 09:07 -33.93654 151.17452 17 ft 0 kts 257°
2026-05-05 09:07 -33.93655 151.17448 17 ft 3 kts 257°
2026-05-05 09:08 -33.93664 151.17407 18 ft 7 kts 252°
2026-05-05 09:08 -33.93707 151.17363 19 ft 10 kts 185°
2026-05-05 09:08 -33.93882 151.17403 22 ft 65 kts 168°
2026-05-05 09:08 -33.94667 151.17605 67 ft 160 kts 168°
2026-05-05 09:09 -33.95877 151.17903 685 ft 193 kts 169°
2026-05-05 09:09 -33.97266 151.18238 1561 ft 211 kts 169°
2026-05-05 09:09 -33.98797 151.18604 2436 ft 240 kts 169°
2026-05-05 09:09 -34.00527 151.19013 3399 ft 265 kts 169°
2026-05-05 09:10 -34.02256 151.19420 4301 ft 242 kts 169°
2026-05-05 09:10 -34.03509 151.19714 4905 ft 236 kts 169°